• In France
  • List of Countries
  • For 7 days
  • Water Temperature
  • Satellite Maps
  • Weather Map
  • Weather Widgets
  • user-avatar
    Login

    Hourly Weather Horoda

    Today, 17 October, Wednesday

    Time Temperature Precipitation Wind Pressure Humidity
    00:00 +4°C° 0 mm 1 mps 591 mmHg 82%
    01:00 +4°C° 0 mm 1 mps 591 mmHg 81%
    02:00 +4°C° 0 mm 1 mps 591 mmHg 80%
    03:00 +4°C° 0 mm 1 mps 591 mmHg 78%
    04:00 +4°C° 0 mm 1 mps 591 mmHg 75%
    05:00 +4°C° 0 mm 1 mps 590 mmHg 72%
    06:00 +3°C° 0 mm 1 mps 590 mmHg 69%
    07:00 +6°C° 0 mm 1 mps 591 mmHg 60%
    08:00 +8°C° 0 mm 1 mps 592 mmHg 52%
    09:00 +10°C° 0 mm 1 mps 593 mmHg 43%
    10:00 +11°C° 0 mm 1 mps 594 mmHg 42%
    11:00 +12°C° 0 mm 1 mps 594 mmHg 40%
    12:00 +13°C° 0 mm 2 mps 594 mmHg 38%
    13:00 +13°C° 0 mm 2 mps 594 mmHg 41%
    14:00 +12°C° 0 mm 2 mps 593 mmHg 44%
    15:00 +12°C° 0 mm 2 mps 593 mmHg 46%
    16:00 +10°C° 0 mm 1 mps 592 mmHg 58%
    17:00 +8°C° 0 mm 1 mps 591 mmHg 69%
    18:00 +6°C° 0 mm 1 mps 590 mmHg 80%
    19:00 +6°C° 0 mm 1 mps 590 mmHg 78%
    20:00 +5°C° 0 mm 1 mps 590 mmHg 76%
    21:00 +5°C° 0 mm 1 mps 590 mmHg 75%
    22:00 +5°C° 0 mm 1 mps 589 mmHg 70%
    23:00 +5°C° 0 mm 1 mps 589 mmHg 66%

    Tomorrow, 18 October, Thursday

    Time Temperature Precipitation Wind Pressure Humidity
    00:00 +4°C° 0 mm 1 mps 589 mmHg 62%
    01:00 +4°C° 0 mm 1 mps 589 mmHg 57%
    02:00 +4°C° 0 mm 1 mps 589 mmHg 53%
    03:00 +4°C° 0 mm 1 mps 589 mmHg 48%
    04:00 +4°C° 0 mm 1 mps 588 mmHg 42%
    05:00 +4°C° 0 mm 1 mps 588 mmHg 36%
    06:00 +4°C° 0 mm 1 mps 588 mmHg 30%
    07:00 +6°C° 0 mm 1 mps 589 mmHg 26%
    08:00 +9°C° 0 mm 1 mps 591 mmHg 23%
    09:00 +11°C° 0 mm 1 mps 592 mmHg 19%
    10:00 +12°C° 0 mm 1 mps 592 mmHg 20%
    11:00 +13°C° 0 mm 1 mps 592 mmHg 21%
    12:00 +14°C° 0 mm 2 mps 593 mmHg 22%
    13:00 +13°C° 0 mm 2 mps 592 mmHg 25%
    14:00 +13°C° 0 mm 2 mps 592 mmHg 29%
    15:00 +13°C° 0 mm 2 mps 592 mmHg 33%
    16:00 +11°C° 0 mm 1 mps 591 mmHg 44%
    17:00 +8°C° 0 mm 1 mps 590 mmHg 55%
    18:00 +6°C° 0 mm 1 mps 589 mmHg 66%
    19:00 +6°C° 0 mm 1 mps 589 mmHg 63%
    20:00 +5°C° 0 mm 1 mps 589 mmHg 60%
    21:00 +5°C° 0 mm 1 mps 589 mmHg 57%
    22:00 +5°C° 0 mm 1 mps 589 mmHg 56%
    23:00 +5°C° 0 mm 1 mps 589 mmHg 56%

    Day after tomorrow, 19 October, Friday

    Time Temperature Precipitation Wind Pressure Humidity
    00:00 +3°C° 0 mm 2 mps 588 mmHg 55%
    01:00 +3°C° 0 mm 2 mps 588 mmHg 57%
    02:00 +3°C° 0 mm 2 mps 588 mmHg 59%
    03:00 +3°C° 0 mm 2 mps 588 mmHg 61%
    04:00 +3°C° 0 mm 2 mps 588 mmHg 61%
    05:00 +3°C° 0 mm 2 mps 588 mmHg 61%
    06:00 +2°C° 0 mm 2 mps 587 mmHg 61%
    07:00 +5°C° 0 mm 2 mps 589 mmHg 52%
    08:00 +8°C° 0 mm 1 mps 590 mmHg 44%
    09:00 +11°C° 0 mm 1 mps 591 mmHg 36%
    10:00 +12°C° 0 mm 1 mps 592 mmHg 33%
    11:00 +13°C° 0 mm 1 mps 592 mmHg 31%
    12:00 +14°C° 0 mm 1 mps 592 mmHg 28%
    13:00 +14°C° 0 mm 1 mps 592 mmHg 31%
    14:00 +14°C° 0 mm 1 mps 591 mmHg 33%
    15:00 +13°C° 0 mm 1 mps 591 mmHg 36%
    16:00 +11°C° 0 mm 1 mps 590 mmHg 45%
    17:00 +9°C° 0 mm 1 mps 589 mmHg 55%
    18:00 +7°C° 0 mm 1 mps 588 mmHg 64%
    19:00 +7°C° 0 mm 1 mps 588 mmHg 65%
    20:00 +6°C° 0 mm 1 mps 588 mmHg 66%
    21:00 +5°C° 0 mm 2 mps 588 mmHg 67%
    22:00 +5°C° 0 mm 2 mps 588 mmHg 69%
    23:00 +4°C° 0 mm 2 mps 587 mmHg 71%

    20 October, Saturday

    Time Temperature Precipitation Wind Pressure Humidity
    00:00 +4°C° 0 mm 2 mps 587 mmHg 72%
    01:00 +4°C° 0 mm 2 mps 587 mmHg 71%
    02:00 +3°C° 0 mm 2 mps 586 mmHg 69%
    03:00 +3°C° 0 mm 2 mps 586 mmHg 68%
    04:00 +3°C° 0 mm 2 mps 586 mmHg 63%
    05:00 +3°C° 0 mm 2 mps 586 mmHg 58%
    06:00 +3°C° 0 mm 2 mps 586 mmHg 53%
    07:00 +6°C° 0 mm 2 mps 587 mmHg 45%
    08:00 +9°C° 0 mm 1 mps 588 mmHg 37%
    09:00 +12°C° 0 mm 1 mps 590 mmHg 30%
    10:00 +13°C° 0 mm 1 mps 590 mmHg 28%
    11:00 +14°C° 0 mm 2 mps 590 mmHg 27%
    12:00 +15°C° 0 mm 2 mps 590 mmHg 25%
    13:00 +14°C° 0 mm 2 mps 590 mmHg 27%
    14:00 +14°C° 0 mm 2 mps 589 mmHg 29%
    15:00 +14°C° 0 mm 2 mps 589 mmHg 30%
    16:00 +12°C° 0 mm 1 mps 588 mmHg 37%
    17:00 +10°C° 0 mm 1 mps 587 mmHg 43%
    18:00 +8°C° 0 mm 1 mps 587 mmHg 49%
    19:00 +7°C° 0 mm 1 mps 587 mmHg 48%
    20:00 +7°C° 0 mm 1 mps 587 mmHg 46%
    21:00 +7°C° 0 mm 1 mps 587 mmHg 45%
    22:00 +7°C° 0 mm 1 mps 586 mmHg 44%
    23:00 +6°C° 0 mm 1 mps 586 mmHg 44%

    21 October, Sunday

    Time Temperature Precipitation Wind Pressure Humidity
    00:00 +6°C° 0 mm 1 mps 586 mmHg 44%
    01:00 +6°C° 0 mm 1 mps 586 mmHg 44%
    02:00 +6°C° 0 mm 1 mps 586 mmHg 45%
    03:00 +6°C° 0 mm 1 mps 586 mmHg 46%
    04:00 +6°C° 0 mm 1 mps 586 mmHg 47%
    05:00 +6°C° 0 mm 1 mps 586 mmHg 48%
    06:00 +6°C° 0 mm 1 mps 585 mmHg 49%
    07:00 +8°C° 0 mm 1 mps 587 mmHg 45%
    08:00 +10°C° 0 mm 1 mps 588 mmHg 41%
    09:00 +12°C° 0 mm 1 mps 589 mmHg 36%
    10:00 +12°C° 0 mm 1 mps 589 mmHg 36%
    11:00 +13°C° 0 mm 1 mps 589 mmHg 36%
    12:00 +14°C° 0 mm 2 mps 589 mmHg 36%
    13:00 +14°C° 0 mm 2 mps 589 mmHg 38%
    14:00 +13°C° 0 mm 1 mps 588 mmHg 40%
    15:00 +13°C° 0 mm 1 mps 588 mmHg 42%
    16:00 +11°C° 0 mm 1 mps 587 mmHg 48%
    17:00 +10°C° 0 mm 1 mps 587 mmHg 54%
    18:00 +7°C° 0 mm 0 mps 586 mmHg 61%
    19:00 +8°C° 0 mm 1 mps 586 mmHg 61%
    20:00 +8°C° 0 mm 1 mps 586 mmHg 62%
    21:00 +8°C° 0 mm 1 mps 586 mmHg 62%
    22:00 +7°C° 0 mm 1 mps 586 mmHg 63%
    23:00 +7°C° 0 mm 1 mps 586 mmHg 64%

    22 October, Monday

    Time Temperature Precipitation Wind Pressure Humidity
    00:00 +7°C° 0 mm 1 mps 586 mmHg 65%
    01:00 +7°C° 0 mm 1 mps 585 mmHg 64%
    02:00 +6°C° 0 mm 1 mps 585 mmHg 64%
    03:00 +6°C° 0 mm 1 mps 585 mmHg 64%
    04:00 +6°C° 0 mm 1 mps 585 mmHg 64%
    05:00 +6°C° 0 mm 1 mps 585 mmHg 64%
    06:00 +6°C° 0 mm 1 mps 585 mmHg 63%
    07:00 +7°C° 0 mm 1 mps 586 mmHg 59%
    08:00 +9°C° 0 mm 1 mps 587 mmHg 54%
    09:00 +11°C° 0 mm 1 mps 588 mmHg 49%
    10:00 +12°C° 0 mm 1 mps 589 mmHg 48%
    11:00 +13°C° 0 mm 2 mps 589 mmHg 46%
    12:00 +13°C° 0 mm 2 mps 589 mmHg 45%
    13:00 +13°C° 0 mm 2 mps 589 mmHg 47%
    14:00 +13°C° 0 mm 2 mps 589 mmHg 49%
    15:00 +12°C° 0 mm 2 mps 589 mmHg 51%
    16:00 +11°C° 0 mm 1 mps 588 mmHg 58%
    17:00 +10°C° 0 mm 1 mps 588 mmHg 65%
    18:00 +7°C° 0 mm 0 mps 587 mmHg 72%
    19:00 +8°C° 0.1 mm 1 mps 587 mmHg 72%
    20:00 +7°C° 0.1 mm 1 mps 587 mmHg 72%
    21:00 +7°C° 0.1 mm 1 mps 587 mmHg 71%
    22:00 +7°C° 0 mm 1 mps 587 mmHg 71%
    23:00 +6°C° 0 mm 1 mps 587 mmHg 71%
    Show more